COSMOS 2389 [-]

Last updated on July 6, 2021, 3:40 p.m. UTC

1 27436U 02026A   21186.96435498  .00000019  00000-0  48860-5 0  9999
2 27436  82.9509  66.3636 0045003 262.3565 108.2307 13.74956954958767
UTC
Height (km)
Latitude
Longitude
Inclination
Orbital Period
UTC large
Height (km)
Speed (km/s)
/
Latitude / Longitude
Inclination (degrees)
Orbital Period (minutes)
Azimuth
Elevation
Range (km)
Doppler Factor
iOS Compass Heading
iOS Angle